QPF
0.00 0.00 0.00 0.00 0.00 0.00 0.00 0.00 0.00 0.00 0.00 0.00 0.00 0.00 0.00 0.00 0.00 0.00 0.00 0.00 0.00 0.00 0.00 0.00 0.00 0.00 0.00 0.00 0.00 0.00 0.00 0.00 0.00 0.00 0.00 0.00 0.00 0.00 0.00 0.00 0.00 0.01 0.04 0.12 0.08 0.00 0.00 0.00 0.00
0.00 0.00 0.00 0.00 0.00 0.00 0.00 0.00 0.00 0.00 0.00 0.00 0.00 0.00 0.00 0.00 0.00 0.00 0.00 0.00 0.00 0.00 0.00 0.00 0.00 0.00 0.00 0.00 0.00 0.00 0.01 0.01 0.00 0.00 0.00 0.00 0.00 0.00 0.00 0.00 0.00 0.02 0.05 0.08 0.01 0.00 0.00 0.00 0.00
0.00 0.00 0.00 0.00 0.00 0.00 0.00 0.00 0.00 0.00 0.00 0.00 0.00 0.00 0.00 0.00 0.00 0.00 0.00 0.00 0.00 0.00 0.00 0.00 0.01 0.00 0.00 0.00 0.00 0.00 0.00 0.00 0.00 0.00 0.00 0.00 0.00 0.00 0.00 0.00 0.00 0.05 0.07 0.07 0.00 0.00 0.00 0.00 0.00
0.00 0.00 0.00 0.00 0.00 0.00 0.00 0.00 0.00 0.00 0.00 0.00 0.00 0.00 0.00 0.00 0.00 0.00 0.00 0.00 0.00 0.00 0.00 0.00 0.00 0.00 0.00 0.00 0.00 0.00 0.00 0.00 0.00 0.00 0.00 0.00 0.00 0.00 0.00 0.00 0.00 0.05 0.07 0.07 0.00 0.00 0.00 0.00 0.00
0.00 0.00 0.00 0.00 0.00 0.00 0.00 0.00 0.00 0.00 0.00 0.00 0.00 0.00 0.00 0.00 0.00 0.00 0.00 0.00 0.01 0.00 0.00 0.00 0.00 0.00 0.00 0.00 0.00 0.00 0.00 0.00 0.00 0.00 0.00 0.00 0.02 0.01 0.00 0.00 0.01 0.03 0.06 0.03 0.00 0.00 0.00 0.00 0.00
0.00 0.00 0.00 0.00 0.00 0.00 0.00 0.00 0.00 0.00 0.00 0.00 0.00 0.00 0.00 0.00 0.00 0.00 0.01 0.01 0.01 0.00 0.00 0.00 0.00 0.00 0.00 0.00 0.00 0.00 0.00 0.00 0.00 0.00 0.00 0.00 0.03 0.01 0.00 0.00 0.00 0.03 0.06 0.04 0.00 0.00 0.00 0.00 0.00
0.00 0.00 0.00 0.00 0.00 0.00 0.00 0.00 0.00 0.00 0.00 0.00 0.00 0.00 0.00 0.00 0.00 0.01 0.02 0.02 0.01 0.01 0.02 0.00 0.00 0.00 0.00 0.00 0.00 0.00 0.00 0.00 0.00 0.01 0.01 0.01 0.01 0.02 0.00 0.00 0.00 0.00 0.04 0.08 0.01 0.00 0.00 0.00 0.00
0.00 0.00 0.00 0.00 0.00 0.00 0.00 0.00 0.00 0.00 0.00 0.00 0.00 0.00 0.03 0.00 0.02 0.05 0.05 0.03 0.03 0.01 0.02 0.00 0.00 0.00 0.00 0.00 0.00 0.00 0.00 0.00 0.01 0.02 0.00 0.00 0.00 0.00 0.00 0.00 0.00 0.00 0.01 0.08 0.03 0.00 0.00 0.00 0.00
0.00 0.00 0.00 0.00 0.00 0.00 0.00 0.00 0.00 0.00 0.00 0.00 0.00 0.00 0.02 0.01 0.04 0.05 0.05 0.04 0.02 0.00 0.01 0.03 0.01 0.00 0.00 0.00 0.00 0.00 0.00 0.01 0.01 0.01 0.00 0.00 0.01 0.00 0.00 0.00 0.00 0.00 0.00 0.03 0.03 0.00 0.00 0.00 0.00
0.00 0.00 0.00 0.00 0.00 0.00 0.00 0.00 0.00 0.00 0.00 0.00 0.00 0.00 0.01 0.02 0.06 0.06 0.05 0.03 0.01 0.01 0.02 0.04 0.02 0.00 0.00 0.00 0.00 0.01 0.00 0.01 0.00 0.01 0.00 0.01 0.03 0.01 0.00 0.00 0.00 0.00 0.00 0.00 0.01 0.01 0.00 0.00 0.00
0.00 0.00 0.00 0.00 0.00 0.00 0.00 0.00 0.00 0.00 0.00 0.00 0.00 0.01 0.05 0.02 0.05 0.06 0.02 0.04 0.02 0.01 0.02 0.02 0.03 0.00 0.00 0.00 0.00 0.01 0.01 0.02 0.01 0.01 0.00 0.00 0.01 0.01 0.00 0.00 0.00 0.00 0.00 0.01 0.01 0.01 0.00 0.00 0.00
0.00 0.00 0.00 0.00 0.00 0.00 0.00 0.00 0.00 0.00 0.00 0.00 0.00 0.04 0.07 0.07 0.17 0.17 0.16 0.15 0.10 0.03 0.00 0.02 0.02 0.02 0.00 0.00 0.00 0.00 0.00 0.00 0.01 0.01 0.00 0.00 0.00 0.01 0.01 0.00 0.00 0.00 0.00 0.01 0.01 0.03 0.01 0.01 0.00
0.00 0.00 0.00 0.00 0.00 0.00 0.00 0.00 0.00 0.00 0.00 0.00 0.02 0.07 0.06 0.12 0.24 0.16 0.21 0.31 0.35 0.26 0.09 0.07 0.03 0.02 0.01 0.00 0.00 0.00 0.00 0.00 0.00 0.01 0.00 0.00 0.00 0.01 0.01 0.00 0.00 0.00 0.00 0.00 0.00 0.01 0.01 0.00 0.00
0.00 0.00 0.00 0.00 0.00 0.00 0.00 0.00 0.00 0.00 0.00 0.01 0.04 0.06 0.06 0.05 0.12 0.15 0.08 0.12 0.21 0.33 0.35 0.09 0.03 0.02 0.01 0.02 0.01 0.01 0.00 0.00 0.00 0.00 0.00 0.00 0.00 0.00 0.00 0.00 0.00 0.00 0.00 0.00 0.00 0.00 0.00 0.00 0.01
0.00 0.00 0.00 0.00 0.00 0.00 0.00 0.00 0.00 0.00 0.00 0.00 0.04 0.07 0.06 0.06 0.07 0.05 0.08 0.09 0.07 0.09 0.24 0.26 0.09 0.07 0.05 0.03 0.02 0.01 0.01 0.00 0.00 0.00 0.00 0.00 0.00 0.00 0.00 0.00 0.00 0.00 0.00 0.00 0.00 0.00 0.00 0.00 0.00
0.00 0.00 0.00 0.00 0.00 0.00 0.00 0.00 0.00 0.00 0.00 0.00 0.00 0.03 0.03 0.01 0.01 0.01 0.03 0.07 0.05 0.03 0.10 0.09 0.17 0.17 0.10 0.04 0.03 0.01 0.00 0.00 0.00 0.00 0.00 0.00 0.00 0.00 0.00 0.00 0.00 0.00 0.00 0.00 0.00 0.00 0.00 0.00 0.00
0.00 0.00 0.00 0.00 0.00 0.00 0.00 0.00 0.00 0.00 0.00 0.00 0.00 0.00 0.00 0.00 0.00 0.00 0.00 0.01 0.07 0.08 0.07 0.03 0.04 0.10 0.16 0.17 0.11 0.03 0.01 0.00 0.00 0.00 0.00 0.00 0.00 0.00 0.00 0.00 0.00 0.00 0.00 0.00 0.00 0.00 0.00 0.00 0.00
0.00 0.00 0.00 0.00 0.00 0.00 0.00 0.00 0.00 0.00 0.00 0.00 0.00 0.00 0.00 0.00 0.00 0.00 0.00 0.00 0.00 0.00 0.01 0.02 0.01 0.00 0.02 0.09 0.14 0.09 0.05 0.02 0.00 0.00 0.01 0.00 0.00 0.00 0.00 0.00 0.00 0.00 0.00 0.00 0.00 0.00 0.00 0.00 0.00
0.00 0.00 0.00 0.00 0.00 0.00 0.00 0.00 0.00 0.00 0.00 0.00 0.00 0.00 0.00 0.00 0.00 0.00 0.00 0.00 0.00 0.00 0.00 0.00 0.02 0.02 0.00 0.02 0.08 0.07 0.07 0.07 0.04 0.01 0.00 0.00 0.01 0.01 0.00 0.00 0.00 0.00 0.00 0.00 0.00 0.00 0.00 0.00 0.00
0.00 0.00 0.00 0.00 0.00 0.00 0.00 0.00 0.00 0.00 0.00 0.00 0.00 0.00 0.00 0.00 0.00 0.00 0.00 0.00 0.00 0.00 0.00 0.00 0.00 0.02 0.01 0.00 0.01 0.04 0.05 0.03 0.03 0.02 0.01 0.00 0.01 0.00 0.00 0.00 0.00 0.00 0.00 0.00 0.00 0.00 0.00 0.00 0.00
0.00 0.00 0.00 0.00 0.00 0.00 0.00 0.00 0.00 0.00 0.00 0.00 0.00 0.00 0.00 0.00 0.00 0.00 0.00 0.00 0.00 0.00 0.00 0.00 0.00 0.00 0.00 0.00 0.00 0.03 0.09 0.04 0.02 0.02 0.03 0.02 0.02 0.02 0.01 0.00 0.00 0.00 0.00 0.00 0.00 0.00 0.00 0.00 0.00
0.00 0.00 0.00 0.00 0.00 0.00 0.00 0.00 0.00 0.00 0.00 0.00 0.00 0.00 0.00 0.00 0.00 0.00 0.00 0.00 0.00 0.00 0.00 0.00 0.00 0.00 0.00 0.00 0.00 0.00 0.03 0.04 0.03 0.02 0.01 0.00 0.00 0.00 0.00 0.00 0.00 0.00 0.00 0.00 0.00 0.00 0.00 0.00 0.00
0.00 0.00 0.00 0.00 0.00 0.00 0.00 0.00 0.00 0.00 0.00 0.00 0.00 0.00 0.00 0.00 0.00 0.00 0.00 0.00 0.00 0.00 0.00 0.00 0.00 0.00 0.00 0.00 0.00 0.00 0.00 0.01 0.05 0.04 0.01 0.01 0.00 0.00 0.00 0.00 0.00 0.00 0.00 0.00 0.00 0.00 0.00 0.00 0.00
0.00 0.00 0.00 0.00 0.00 0.00 0.00 0.00 0.00 0.00 0.00 0.00 0.00 0.00 0.00 0.00 0.00 0.00 0.00 0.00 0.00 0.00 0.00 0.00 0.00 0.00 0.00 0.00 0.00 0.00 0.00 0.00 0.00 0.02 0.03 0.02 0.02 0.01 0.00 0.00 0.00 0.00 0.00 0.00 0.01 0.01 0.00 0.00 0.00
0.00 0.00 0.00 0.00 0.00 0.00 0.00 0.00 0.00 0.00 0.00 0.00 0.00 0.00 0.00 0.00 0.00 0.00 0.00 0.00 0.00 0.00 0.00 0.00 0.00 0.00 0.00 0.00 0.00 0.00 0.00 0.00 0.00 0.00 0.01 0.01 0.01 0.01 0.00 0.02 0.01 0.00 0.00 0.00 0.01 0.01 0.00 0.00 0.00
0.00 0.00 0.00 0.00 0.00 0.00 0.00 0.00 0.00 0.00 0.00 0.00 0.00 0.00 0.00 0.00 0.00 0.00 0.00 0.00 0.00 0.00 0.00 0.00 0.00 0.00 0.00 0.00 0.00 0.00 0.00 0.00 0.00 0.00 0.00 0.01 0.01 0.02 0.02 0.03 0.04 0.03 0.02 0.00 0.01 0.01 0.01 0.01 0.01
0.00 0.00 0.00 0.00 0.00 0.00 0.00 0.00 0.00 0.00 0.00 0.00 0.00 0.00 0.00 0.00 0.00 0.00 0.00 0.00 0.00 0.00 0.00 0.00 0.00 0.00 0.00 0.00 0.00 0.00 0.00 0.00 0.00 0.00 0.00 0.00 0.01 0.02 0.03 0.03 0.02 0.02 0.03 0.02 0.01 0.01 0.01 0.00 0.00
0.00 0.00 0.00 0.00 0.00 0.00 0.00 0.00 0.00 0.00 0.00 0.00 0.00 0.00 0.00 0.00 0.00 0.00 0.00 0.00 0.00 0.00 0.00 0.00 0.00 0.00 0.00 0.00 0.00 0.00 0.00 0.00 0.00 0.00 0.00 0.00 0.00 0.01 0.03 0.02 0.02 0.01 0.00 0.00 0.01 0.01 0.02 0.01 0.01
0.00 0.00 0.00 0.00 0.00 0.00 0.00 0.00 0.00 0.00 0.00 0.00 0.00 0.00 0.00 0.00 0.00 0.00 0.00 0.00 0.00 0.00 0.00 0.00 0.00 0.00 0.00 0.00 0.00 0.00 0.00 0.00 0.00 0.00 0.00 0.00 0.01 0.02 0.02 0.03 0.03 0.01 0.00 0.00 0.00 0.01 0.02 0.01 0.01
0.00 0.00 0.00 0.00 0.00 0.00 0.00 0.00 0.00 0.00 0.00 0.00 0.00 0.00 0.00 0.00 0.00 0.00 0.00 0.00 0.00 0.00 0.00 0.00 0.00 0.00 0.00 0.00 0.00 0.00 0.00 0.00 0.00 0.00 0.00 0.00 0.00 0.00 0.02 0.04 0.05 0.04 0.02 0.00 0.00 0.00 0.00 0.01 0.01
MSLP
1014.19 1013.22 1012.64 1011.52 1010.77 1009.05 1007.23 1006.44 1006.46 1006.33 1006.36 1006.43 1006.77 1006.40 1006.45 1007.28 1007.77 1009.69 1010.84 1011.40 1012.16 1013.00 1013.95 1014.88 1015.35 1015.81 1016.01 1016.32 1016.69 1017.07 1017.34 1017.61 1017.92 1018.13 1018.50 1018.66 1018.79 1018.79 1018.97 1019.07 1019.11 1018.97 1018.90 1019.29 1019.61 1020.03 1020.42 1020.79 1021.15
1013.83 1013.18 1012.16 1010.51 1009.75 1008.18 1006.62 1006.19 1006.54 1006.64 1006.69 1007.41 1007.51 1007.40 1007.33 1007.96 1009.34 1010.59 1011.24 1011.66 1012.23 1012.87 1014.02 1014.49 1015.43 1016.05 1016.35 1016.69 1016.92 1017.30 1017.51 1017.78 1018.10 1018.33 1018.60 1018.90 1019.07 1019.13 1019.23 1019.35 1019.47 1019.49 1019.65 1019.82 1020.14 1020.58 1020.89 1021.26 1021.57
1013.85 1012.86 1011.31 1010.16 1009.33 1007.71 1006.45 1006.14 1006.72 1006.79 1007.77 1007.66 1007.64 1008.04 1007.92 1009.13 1010.29 1010.89 1011.15 1011.92 1012.62 1013.10 1013.82 1014.53 1015.59 1016.06 1016.70 1016.94 1017.25 1017.52 1017.81 1018.00 1018.33 1018.63 1018.68 1019.07 1019.25 1019.41 1019.61 1019.72 1019.73 1019.91 1020.12 1020.31 1020.74 1021.10 1021.39 1021.72 1022.03
1012.82 1012.10 1011.64 1010.67 1008.70 1007.97 1007.56 1006.97 1007.09 1007.30 1007.92 1008.13 1007.88 1008.04 1009.52 1010.61 1010.65 1010.91 1012.00 1012.65 1013.06 1013.51 1014.06 1015.10 1015.69 1016.13 1016.72 1017.23 1017.44 1017.81 1017.94 1018.25 1018.60 1018.82 1018.95 1019.22 1019.51 1019.64 1019.85 1020.01 1020.11 1020.27 1020.48 1020.75 1021.20 1021.59 1021.91 1022.16 1022.47
1012.53 1011.35 1010.21 1009.61 1008.81 1008.22 1008.80 1008.67 1008.89 1008.26 1007.64 1007.84 1008.27 1008.20 1009.67 1011.18 1011.31 1011.49 1012.17 1013.41 1013.43 1014.04 1014.51 1015.41 1015.97 1016.29 1016.90 1017.35 1017.62 1017.92 1018.13 1018.53 1018.85 1019.06 1019.28 1019.52 1019.74 1019.97 1020.01 1020.27 1020.53 1020.61 1020.87 1021.11 1021.61 1022.03 1022.38 1022.67 1022.79
1011.69 1011.18 1010.09 1009.07 1008.60 1009.04 1009.81 1009.54 1009.79 1009.18 1008.40 1008.55 1008.74 1008.90 1010.45 1012.01 1011.65 1012.14 1012.99 1013.69 1013.87 1014.72 1015.27 1015.70 1016.36 1016.73 1017.05 1017.43 1017.83 1018.10 1018.47 1018.89 1019.10 1019.37 1019.59 1019.79 1019.94 1020.17 1020.26 1020.50 1020.83 1021.02 1021.13 1021.38 1021.88 1022.41 1022.74 1023.01 1023.22
1011.97 1011.08 1010.17 1009.72 1009.67 1009.74 1010.26 1010.63 1010.10 1009.44 1008.93 1008.88 1009.50 1009.58 1011.19 1012.12 1012.44 1012.94 1013.42 1013.97 1014.32 1015.17 1015.49 1015.80 1016.41 1017.00 1017.49 1017.76 1018.23 1018.54 1018.81 1019.16 1019.37 1019.61 1019.89 1020.08 1020.30 1020.46 1020.60 1020.81 1021.11 1021.34 1021.49 1021.71 1022.16 1022.73 1023.12 1023.41 1023.58
1012.69 1011.65 1010.65 1010.54 1010.59 1010.58 1011.41 1011.17 1010.97 1010.33 1009.81 1010.33 1010.87 1010.40 1011.33 1012.75 1013.42 1013.72 1014.08 1014.57 1014.88 1015.54 1015.76 1015.84 1016.41 1017.14 1017.56 1017.97 1018.32 1018.78 1019.15 1019.41 1019.65 1019.96 1020.22 1020.44 1020.63 1020.84 1021.05 1021.20 1021.43 1021.59 1021.78 1022.14 1022.44 1022.91 1023.37 1023.77 1024.04
1013.66 1012.32 1011.47 1011.54 1012.07 1011.89 1012.33 1011.83 1011.55 1011.50 1011.12 1011.32 1012.08 1012.39 1012.93 1013.36 1014.06 1014.41 1014.70 1015.08 1015.61 1015.87 1016.22 1016.39 1016.46 1017.02 1017.38 1017.86 1018.49 1018.93 1019.32 1019.73 1019.96 1020.32 1020.55 1020.64 1020.86 1021.01 1021.26 1021.32 1021.70 1021.92 1022.09 1022.39 1022.75 1023.07 1023.63 1024.07 1024.40
1013.66 1013.09 1013.13 1014.11 1013.93 1013.62 1013.38 1012.95 1012.68 1011.96 1011.52 1012.00 1012.45 1012.67 1013.36 1014.17 1014.61 1014.79 1015.09 1015.38 1015.70 1016.07 1016.38 1016.95 1016.96 1016.96 1017.43 1017.49 1018.40 1018.74 1019.17 1019.53 1019.63 1020.10 1020.46 1020.14 1020.82 1021.03 1021.30 1021.95 1022.17 1022.28 1022.52 1022.65 1023.01 1023.38 1023.84 1024.23 1024.40
1015.18 1014.38 1015.26 1015.17 1015.35 1015.11 1014.35 1013.58 1014.09 1013.20 1013.24 1014.62 1014.49 1013.95 1014.62 1014.85 1015.14 1015.30 1015.31 1015.52 1015.74 1015.78 1016.38 1016.95 1017.06 1017.11 1017.30 1017.42 1018.14 1018.60 1019.04 1019.45 1019.41 1019.95 1020.09 1020.23 1020.86 1021.30 1021.69 1022.03 1022.25 1022.39 1022.68 1022.99 1023.41 1023.80 1023.96 1023.82 1023.85
1016.17 1016.71 1016.56 1016.50 1016.19 1015.77 1015.07 1014.68 1014.77 1015.42 1016.24 1016.18 1015.79 1015.26 1015.80 1015.89 1016.06 1016.21 1015.81 1015.68 1015.97 1015.98 1016.31 1016.77 1016.94 1017.02 1017.27 1017.67 1017.90 1018.37 1018.91 1019.34 1019.60 1020.10 1020.18 1020.44 1020.66 1021.38 1021.64 1021.69 1021.77 1022.22 1022.32 1022.85 1023.41 1023.71 1023.61 1023.69 1023.66
1016.98 1017.27 1017.25 1017.05 1016.77 1016.34 1015.91 1015.23 1015.23 1016.42 1016.61 1016.88 1017.72 1017.51 1017.52 1017.65 1017.91 1018.07 1017.66 1017.20 1016.97 1016.08 1016.27 1016.79 1016.77 1017.06 1017.28 1017.68 1018.04 1018.08 1018.66 1019.17 1019.70 1020.15 1020.46 1020.44 1020.77 1021.33 1022.01 1021.98 1021.88 1022.24 1022.40 1022.70 1023.23 1023.47 1023.62 1023.74 1023.82
1018.17 1018.07 1017.62 1017.37 1017.17 1016.85 1016.69 1016.13 1016.18 1017.28 1017.26 1017.71 1018.69 1018.82 1018.90 1018.96 1019.14 1018.75 1018.46 1018.29 1017.95 1017.09 1016.05 1016.58 1016.90 1016.97 1017.17 1017.28 1017.83 1018.12 1018.51 1019.12 1019.42 1020.01 1020.54 1020.66 1020.93 1021.36 1021.97 1022.26 1022.13 1022.41 1022.61 1022.67 1022.84 1023.16 1023.56 1023.83 1023.98
1018.48 1018.01 1017.66 1017.80 1017.56 1017.34 1017.34 1017.04 1018.23 1018.52 1017.94 1018.46 1018.86 1019.56 1019.77 1019.96 1019.94 1020.23 1019.32 1019.74 1018.45 1016.94 1017.20 1016.33 1016.62 1016.84 1017.19 1017.19 1017.74 1018.13 1018.56 1018.90 1019.60 1019.80 1020.24 1020.69 1021.15 1021.48 1021.99 1022.20 1022.32 1022.50 1022.75 1022.99 1023.08 1023.34 1023.54 1023.74 1024.03
1018.29 1018.07 1017.51 1018.36 1018.26 1017.78 1017.72 1018.10 1019.14 1019.07 1018.55 1018.81 1019.48 1019.75 1020.61 1020.84 1020.68 1020.68 1020.91 1021.17 1019.24 1018.75 1018.62 1018.74 1017.67 1017.14 1017.71 1017.87 1018.17 1018.30 1018.55 1018.86 1019.28 1019.87 1020.09 1020.64 1021.01 1021.52 1021.86 1022.16 1022.40 1022.53 1022.91 1023.16 1023.36 1023.61 1023.87 1023.98 1024.09
1018.10 1017.89 1018.30 1018.39 1019.15 1018.42 1018.27 1018.45 1019.85 1019.71 1019.37 1019.33 1019.70 1020.21 1020.61 1021.17 1021.71 1021.70 1021.32 1020.60 1019.91 1019.84 1019.89 1019.61 1018.58 1017.69 1017.94 1017.75 1017.80 1018.21 1018.62 1018.93 1019.14 1019.95 1020.05 1020.40 1020.77 1021.06 1021.63 1021.98 1022.32 1022.51 1022.87 1023.04 1023.24 1023.51 1023.76 1024.04 1024.17
1019.26 1019.03 1019.08 1019.43 1019.95 1019.30 1019.19 1019.82 1020.20 1020.31 1020.15 1020.11 1020.38 1020.59 1020.85 1021.49 1021.05 1021.58 1022.40 1021.36 1020.81 1020.21 1020.51 1020.81 1020.17 1019.63 1019.32 1018.47 1018.10 1018.53 1018.72 1019.03 1019.21 1019.79 1020.19 1020.21 1020.48 1020.91 1021.48 1021.72 1021.97 1022.36 1022.69 1022.94 1023.16 1023.40 1023.67 1023.84 1024.09
1020.73 1020.36 1020.02 1020.25 1020.74 1020.33 1020.14 1020.31 1020.61 1020.89 1020.82 1020.83 1020.93 1021.09 1021.21 1021.36 1022.06 1022.36 1022.06 1021.58 1021.11 1020.55 1021.07 1021.34 1020.91 1020.80 1019.97 1019.29 1018.71 1018.63 1018.91 1019.25 1019.11 1019.46 1019.74 1020.18 1020.01 1020.78 1021.23 1021.77 1021.83 1022.05 1022.48 1022.73 1022.98 1023.40 1023.58 1023.90 1024.26
1021.26 1021.01 1020.80 1020.97 1021.22 1020.77 1020.52 1020.52 1020.80 1021.08 1021.35 1021.60 1021.63 1021.73 1021.91 1022.02 1021.99 1022.24 1022.27 1022.03 1021.88 1021.02 1021.71 1021.86 1021.54 1021.16 1020.89 1020.48 1020.06 1019.69 1018.71 1018.75 1018.90 1019.22 1019.54 1019.96 1020.41 1020.70 1021.26 1021.52 1021.59 1021.69 1022.09 1022.38 1022.76 1023.09 1023.40 1023.64 1024.19
1021.71 1022.16 1022.16 1021.91 1021.53 1021.25 1020.73 1019.83 1020.29 1021.04 1021.27 1021.64 1022.08 1022.34 1022.48 1022.49 1022.35 1022.32 1022.34 1022.27 1022.11 1022.29 1022.56 1022.25 1021.98 1021.71 1021.25 1021.09 1020.75 1019.68 1018.54 1018.41 1018.96 1018.94 1019.14 1019.34 1019.82 1020.49 1020.57 1021.30 1021.45 1021.52 1021.43 1021.95 1022.46 1022.72 1023.05 1023.41 1023.83
1022.32 1023.00 1022.70 1022.23 1021.85 1020.69 1020.97 1019.40 1019.46 1020.35 1020.83 1021.40 1022.08 1022.56 1022.96 1023.29 1023.23 1023.14 1023.07 1023.06 1023.02 1023.03 1022.82 1022.42 1022.10 1021.84 1021.44 1021.20 1020.72 1020.17 1019.47 1018.56 1018.64 1018.38 1018.76 1019.04 1019.20 1019.55 1020.01 1020.51 1020.52 1020.73 1020.79 1021.34 1021.70 1022.07 1022.61 1023.13 1023.34
1023.33 1023.31 1022.92 1022.54 1021.94 1021.49 1020.86 1020.59 1019.50 1020.25 1020.62 1021.38 1022.24 1022.86 1023.20 1023.53 1023.60 1023.35 1023.44 1023.59 1023.46 1023.38 1023.10 1022.70 1022.36 1022.04 1021.52 1021.11 1020.75 1020.24 1019.75 1019.37 1018.57 1018.11 1018.56 1018.58 1018.73 1018.84 1019.08 1019.61 1019.85 1020.30 1020.39 1020.65 1020.86 1021.45 1021.97 1022.42 1022.91
1023.79 1023.21 1022.90 1022.61 1022.10 1021.46 1020.90 1020.89 1019.29 1020.04 1021.07 1021.94 1022.54 1023.04 1023.44 1023.70 1023.64 1023.63 1023.66 1023.73 1023.77 1023.65 1023.47 1023.21 1022.74 1022.30 1021.90 1021.39 1020.93 1020.61 1020.24 1019.71 1019.13 1018.38 1017.90 1018.03 1018.29 1018.51 1018.73 1019.12 1019.45 1019.79 1020.12 1020.43 1020.70 1020.91 1021.36 1021.75 1022.17
1023.77 1023.15 1022.58 1022.54 1022.14 1021.18 1021.42 1021.20 1019.74 1021.33 1022.25 1022.80 1023.00 1023.22 1023.51 1023.72 1023.75 1023.81 1023.91 1023.87 1023.79 1023.95 1023.93 1023.75 1023.30 1022.65 1022.33 1022.01 1021.49 1020.97 1020.49 1019.94 1019.51 1019.06 1018.55 1017.73 1017.83 1018.10 1018.26 1018.51 1019.00 1019.27 1019.40 1019.64 1019.89 1020.60 1020.86 1021.23 1021.50
1024.81 1024.45 1024.29 1023.77 1022.87 1021.83 1021.49 1020.78 1020.71 1021.77 1022.65 1023.01 1023.20 1023.33 1023.37 1023.66 1023.92 1024.04 1024.17 1024.33 1024.40 1024.20 1024.19 1024.20 1023.82 1023.33 1022.83 1022.25 1021.78 1021.25 1020.61 1019.99 1019.52 1019.09 1018.70 1018.29 1017.55 1017.70 1017.75 1018.15 1018.50 1018.58 1018.75 1019.17 1019.43 1019.94 1020.08 1020.60 1020.99
1025.44 1025.24 1025.72 1025.04 1024.50 1023.33 1020.93 1020.58 1021.67 1022.29 1022.53 1022.76 1023.06 1023.32 1023.43 1023.80 1024.07 1024.23 1024.36 1024.47 1024.84 1024.84 1024.96 1024.91 1024.47 1023.95 1023.37 1022.69 1021.90 1021.20 1020.64 1020.09 1019.43 1018.95 1018.83 1018.50 1017.96 1017.27 1017.58 1017.78 1018.22 1018.33 1018.43 1018.71 1018.85 1019.54 1019.70 1019.92 1020.37
1025.92 1026.02 1025.85 1025.22 1024.51 1023.01 1021.14 1020.86 1020.90 1022.00 1022.11 1022.42 1022.99 1023.40 1023.70 1024.03 1024.27 1024.41 1024.59 1024.74 1025.11 1025.12 1025.14 1024.97 1024.76 1024.40 1023.79 1023.14 1022.38 1021.51 1020.77 1020.23 1019.74 1019.14 1018.57 1018.26 1017.96 1017.53 1017.51 1017.76 1017.94 1018.09 1018.20 1018.36 1018.86 1019.06 1019.28 1019.60 1019.96
1026.21 1025.94 1025.66 1025.78 1025.55 1024.72 1023.10 1020.98 1021.44 1021.95 1022.56 1022.99 1023.25 1023.75 1024.21 1024.46 1024.69 1024.79 1024.93 1024.99 1025.17 1025.49 1025.44 1025.29 1024.94 1024.61 1024.14 1023.53 1022.76 1022.01 1021.25 1020.49 1019.83 1019.23 1018.28 1017.88 1017.83 1017.77 1017.69 1017.88 1018.02 1018.24 1018.60 1018.81 1018.89 1019.10 1019.30 1019.55 1019.83
1027.00 1026.41 1026.27 1025.84 1026.04 1025.70 1025.27 1022.80 1022.24 1022.71 1023.25 1023.74 1023.90 1024.21 1024.67 1025.15 1025.26 1025.37 1025.38 1025.37 1025.33 1025.43 1025.59 1025.50 1025.24 1024.90 1024.43 1023.78 1023.04 1022.36 1021.70 1021.05 1020.46 1019.94 1019.31 1018.80 1018.55 1018.52 1018.45 1018.75 1018.92 1019.12 1019.58 1019.65 1019.83 1020.12 1020.25 1020.42 1020.81
Thickness
5689 5697 5702 5703 5682 5694 5697 5709 5723 5715 5716 5732 5734 5733 5732 5731 5725 5705 5723 5724 5718 5712 5704 5697 5693 5690 5691 5689 5689 5689 5690 5689 5688 5688 5685 5686 5687 5689 5688 5687 5686 5689 5690 5688 5686 5684 5682 5678 5676
5691 5694 5699 5698 5678 5678 5701 5721 5707 5714 5720 5722 5721 5723 5722 5715 5720 5711 5713 5720 5716 5711 5701 5699 5692 5686 5686 5684 5685 5684 5686 5686 5685 5686 5685 5683 5684 5685 5687 5686 5684 5684 5683 5683 5681 5679 5677 5674 5672
5689 5694 5689 5683 5678 5681 5697 5713 5709 5713 5712 5712 5711 5718 5719 5708 5709 5709 5717 5714 5709 5708 5702 5697 5690 5687 5681 5681 5679 5680 5680 5682 5682 5682 5684 5681 5682 5682 5682 5683 5683 5681 5679 5678 5675 5673 5672 5670 5668
5689 5687 5681 5663 5674 5690 5693 5703 5705 5704 5706 5708 5712 5704 5706 5706 5705 5711 5707 5704 5702 5700 5698 5691 5687 5684 5680 5676 5676 5675 5676 5676 5676 5678 5680 5680 5678 5679 5680 5679 5679 5678 5676 5674 5671 5669 5667 5666 5664
5687 5685 5672 5667 5673 5686 5683 5684 5686 5686 5700 5702 5704 5700 5697 5695 5703 5705 5701 5692 5694 5692 5690 5685 5682 5681 5676 5674 5673 5672 5673 5671 5672 5673 5674 5675 5676 5675 5677 5676 5674 5675 5673 5670 5667 5665 5663 5661 5661
5678 5678 5663 5663 5672 5671 5666 5673 5670 5675 5688 5691 5690 5696 5688 5686 5693 5694 5691 5687 5686 5682 5680 5678 5675 5675 5673 5671 5670 5670 5668 5667 5668 5668 5669 5670 5672 5672 5673 5672 5671 5670 5670 5668 5664 5660 5659 5658 5656
5667 5666 5661 5661 5653 5652 5653 5660 5658 5666 5674 5677 5684 5681 5680 5677 5684 5684 5683 5681 5681 5674 5674 5673 5670 5669 5665 5666 5664 5664 5664 5663 5664 5664 5664 5665 5666 5667 5668 5668 5667 5666 5666 5665 5662 5657 5655 5653 5653
5661 5658 5650 5648 5639 5634 5637 5645 5651 5654 5660 5670 5670 5668 5669 5668 5671 5673 5673 5672 5672 5668 5668 5670 5666 5662 5660 5660 5661 5660 5659 5660 5660 5660 5661 5660 5661 5661 5662 5663 5662 5662 5662 5661 5659 5656 5652 5650 5649
5648 5639 5635 5630 5620 5621 5625 5626 5640 5648 5647 5654 5652 5653 5657 5663 5661 5660 5660 5662 5661 5662 5661 5662 5662 5659 5658 5657 5655 5655 5655 5654 5656 5655 5656 5657 5656 5658 5657 5660 5658 5657 5657 5657 5655 5654 5649 5647 5646
5637 5627 5620 5611 5610 5607 5610 5613 5620 5631 5638 5636 5642 5652 5653 5651 5650 5650 5651 5652 5655 5654 5656 5653 5655 5657 5654 5655 5651 5649 5649 5651 5653 5651 5651 5656 5654 5656 5655 5653 5653 5653 5652 5653 5651 5649 5647 5644 5643
5616 5613 5601 5601 5596 5594 5599 5605 5605 5613 5611 5610 5617 5635 5636 5640 5643 5645 5649 5650 5652 5656 5654 5651 5650 5652 5652 5652 5647 5647 5643 5646 5650 5648 5650 5651 5650 5649 5650 5649 5648 5649 5648 5646 5645 5644 5644 5645 5645
5602 5590 5587 5584 5586 5584 5587 5594 5591 5587 5583 5596 5609 5623 5621 5627 5632 5635 5645 5647 5646 5649 5648 5646 5648 5648 5648 5647 5646 5645 5643 5642 5643 5642 5645 5646 5647 5644 5645 5647 5648 5646 5648 5645 5642 5641 5642 5642 5643
5591 5582 5578 5576 5576 5578 5580 5583 5583 5573 5582 5589 5585 5594 5600 5605 5609 5612 5620 5627 5631 5643 5642 5640 5642 5644 5644 5643 5642 5643 5642 5641 5638 5637 5637 5640 5641 5640 5638 5640 5644 5642 5643 5642 5640 5639 5639 5639 5638
5578 5572 5572 5569 5568 5569 5565 5570 5573 5565 5576 5577 5572 5578 5585 5590 5593 5599 5608 5614 5613 5623 5637 5638 5637 5638 5640 5642 5640 5639 5639 5637 5638 5635 5633 5635 5635 5635 5633 5634 5637 5637 5637 5638 5639 5637 5635 5635 5635
5574 5571 5570 5563 5562 5561 5561 5558 5545 5551 5566 5564 5566 5567 5574 5577 5582 5582 5580 5593 5599 5612 5621 5634 5636 5632 5633 5637 5636 5636 5634 5635 5633 5633 5632 5632 5631 5629 5629 5629 5631 5632 5632 5632 5632 5631 5631 5630 5629
5573 5570 5567 5555 5553 5557 5557 5545 5538 5545 5556 5557 5553 5560 5556 5562 5570 5572 5568 5569 5592 5601 5607 5611 5615 5623 5622 5623 5625 5628 5629 5630 5631 5629 5630 5628 5628 5626 5625 5626 5625 5626 5626 5626 5626 5625 5624 5624 5625
5576 5567 5555 5554 5544 5549 5549 5544 5530 5537 5545 5549 5553 5550 5552 5550 5552 5556 5562 5571 5581 5586 5589 5593 5595 5610 5612 5616 5620 5621 5623 5625 5626 5624 5626 5625 5624 5625 5622 5622 5622 5622 5620 5621 5621 5620 5620 5619 5619
5555 5556 5553 5542 5535 5540 5538 5528 5527 5529 5534 5538 5542 5546 5548 5542 5550 5549 5545 5561 5569 5577 5577 5575 5582 5589 5594 5602 5610 5613 5615 5617 5620 5619 5619 5623 5622 5620 5618 5618 5618 5617 5616 5616 5615 5616 5615 5615 5614
5548 5547 5546 5540 5530 5530 5527 5523 5521 5519 5523 5527 5531 5535 5539 5542 5537 5536 5543 5550 5559 5568 5566 5565 5568 5573 5584 5594 5603 5604 5607 5608 5614 5614 5617 5617 5614 5615 5614 5611 5612 5613 5612 5612 5612 5610 5609 5608 5607
5547 5544 5542 5535 5525 5527 5524 5520 5518 5516 5513 5514 5519 5523 5526 5529 5534 5533 5533 5539 5545 5557 5553 5555 5559 5564 5571 5579 5585 5591 5602 5606 5608 5607 5610 5611 5612 5611 5607 5605 5608 5610 5609 5609 5608 5607 5605 5605 5602
5544 5528 5522 5521 5522 5521 5520 5527 5521 5514 5515 5514 5513 5514 5517 5520 5525 5528 5530 5532 5537 5540 5541 5546 5552 5556 5563 5566 5572 5584 5598 5600 5601 5603 5606 5607 5607 5605 5606 5602 5604 5605 5608 5606 5603 5604 5602 5600 5599
5541 5521 5518 5518 5516 5525 5517 5529 5528 5521 5519 5518 5513 5511 5509 5507 5511 5517 5520 5522 5525 5528 5534 5540 5545 5549 5556 5561 5567 5574 5583 5596 5598 5604 5602 5602 5603 5603 5603 5602 5605 5605 5607 5605 5603 5601 5599 5596 5595
5528 5516 5515 5516 5517 5516 5518 5513 5528 5521 5521 5517 5512 5507 5505 5503 5504 5509 5512 5512 5517 5519 5524 5532 5538 5541 5549 5556 5563 5570 5578 5583 5593 5598 5597 5599 5600 5603 5603 5599 5598 5600 5599 5600 5600 5598 5596 5594 5591
5522 5517 5515 5517 5517 5514 5520 5514 5537 5528 5519 5511 5508 5504 5501 5500 5503 5505 5505 5507 5509 5513 5516 5521 5528 5535 5540 5547 5554 5560 5567 5575 5583 5591 5598 5598 5598 5598 5598 5596 5598 5598 5598 5595 5591 5592 5592 5590 5588
5524 5518 5525 5525 5520 5527 5514 5511 5534 5512 5503 5499 5499 5499 5498 5498 5499 5499 5499 5501 5504 5505 5508 5511 5517 5526 5531 5536 5542 5548 5555 5564 5570 5577 5584 5596 5596 5597 5597 5596 5595 5595 5594 5593 5591 5588 5591 5587 5586
5515 5510 5505 5513 5522 5525 5518 5521 5527 5510 5500 5498 5497 5497 5499 5497 5494 5493 5493 5492 5493 5498 5500 5502 5508 5515 5521 5528 5535 5541 5548 5555 5562 5569 5575 5581 5590 5591 5593 5593 5591 5592 5592 5591 5591 5589 5589 5585 5585
5512 5504 5493 5487 5482 5491 5534 5533 5512 5501 5503 5504 5501 5497 5497 5493 5490 5488 5488 5488 5485 5487 5487 5489 5496 5504 5511 5519 5528 5536 5542 5548 5555 5560 5563 5568 5576 5585 5585 5585 5585 5585 5586 5586 5587 5585 5585 5586 5584
5515 5506 5500 5504 5511 5521 5539 5530 5536 5512 5513 5509 5502 5497 5493 5489 5486 5484 5482 5481 5478 5480 5482 5485 5489 5494 5502 5509 5518 5527 5534 5539 5545 5551 5558 5562 5567 5573 5576 5578 5579 5580 5581 5581 5580 5581 5583 5581 5579
5521 5511 5509 5503 5497 5505 5515 5545 5523 5517 5511 5503 5502 5495 5489 5485 5482 5480 5478 5477 5476 5473 5475 5477 5482 5487 5493 5500 5507 5515 5523 5530 5537 5543 5553 5558 5559 5562 5566 5568 5569 5569 5568 5569 5572 5574 5574 5573 5571
5509 5511 5506 5506 5497 5494 5479 5517 5517 5510 5503 5496 5495 5493 5485 5478 5476 5474 5473 5472 5471 5471 5470 5471 5475 5480 5485 5492 5499 5506 5511 5518 5524 5530 5536 5541 5544 5546 5549 5550 5552 5552 5550 5552 5553 5553 5555 5555 5553